Saint Bonnet de Bellac- Haute Vienne - France
Donnes mto: vendredi / samedi, 01/10/2011
Date Horaire Temp. E. Hum. E. P.atmo. Pluie Vent Direction Direction Ensoleilleme Solaire P. de rose Temp au vent Rafales
30/09/2011 21:00 20,6 C 51 % 1023,3 hPa 0,0 mm 0,0 km/h (0 Bft) E 90 0 min 0 W/m 10,1 C 20,6 C 0,0 km/h (0 Bft)
30/09/2011 21:05 20,4 C 51 % 1023,2 hPa 0,0 mm 0,0 km/h (0 Bft) E 90 0 min 0 W/m 9,9 C 20,4 C 0,0 km/h (0 Bft)
30/09/2011 21:10 20,2 C 51 % 1023,2 hPa 0,0 mm 0,0 km/h (0 Bft) E 90 0 min 0 W/m 9,7 C 20,2 C 0,0 km/h (0 Bft)
30/09/2011 21:15 20,0 C 52 % 1023,2 hPa 0,0 mm 0,0 km/h (0 Bft) E 90 0 min 0 W/m 9,8 C 20,0 C 0,0 km/h (0 Bft)
30/09/2011 21:20 19,8 C 52 % 1023,3 hPa 0,0 mm 0,0 km/h (0 Bft) E 90 0 min 0 W/m 9,7 C 19,8 C 0,0 km/h (0 Bft)
30/09/2011 21:25 19,6 C 53 % 1023,3 hPa 0,0 mm 0,0 km/h (0 Bft) E 90 0 min 0 W/m 9,8 C 19,6 C 0,0 km/h (0 Bft)
30/09/2011 21:30 19,4 C 53 % 1023,4 hPa 0,0 mm 0,0 km/h (0 Bft) E 90 0 min 0 W/m 9,6 C 19,4 C 0,0 km/h (0 Bft)
30/09/2011 21:35 19,2 C 54 % 1023,4 hPa 0,0 mm 0,0 km/h (0 Bft) E 90 0 min 0 W/m 9,7 C 19,2 C 0,0 km/h (0 Bft)
30/09/2011 21:40 18,9 C 54 % 1023,4 hPa 0,0 mm 0,0 km/h (0 Bft) E 90 0 min 0 W/m 9,4 C 18,9 C 0,0 km/h (0 Bft)
30/09/2011 21:45 18,8 C 55 % 1023,3 hPa 0,0 mm 0,0 km/h (0 Bft) E 90 0 min 0 W/m 9,6 C 18,8 C 0,0 km/h (0 Bft)
30/09/2011 21:50 18,6 C 56 % 1023,3 hPa 0,0 mm 0,0 km/h (0 Bft) E 90 0 min 0 W/m 9,6 C 18,6 C 0,0 km/h (0 Bft)
30/09/2011 21:55 18,5 C 56 % 1023,4 hPa 0,0 mm 0,0 km/h (0 Bft) E 90 0 min 0 W/m 9,6 C 18,5 C 0,0 km/h (0 Bft)
30/09/2011 22:00 18,3 C 57 % 1023,3 hPa 0,0 mm 0,0 km/h (0 Bft) E 90 0 min 0 W/m 9,6 C 18,3 C 0,0 km/h (0 Bft)
30/09/2011 22:05 18,2 C 57 % 1023,3 hPa 0,0 mm 0,0 km/h (0 Bft) SE 135 0 min 0 W/m 9,5 C 18,2 C 0,0 km/h (0 Bft)
30/09/2011 22:10 18,1 C 57 % 1023,4 hPa 0,0 mm 0,0 km/h (0 Bft) SE 135 0 min 0 W/m 9,4 C 18,1 C 0,0 km/h (0 Bft)
30/09/2011 22:15 17,9 C 57 % 1023,4 hPa 0,0 mm 0,0 km/h (0 Bft) SE 135 0 min 0 W/m 9,3 C 17,9 C 0,0 km/h (0 Bft)
30/09/2011 22:20 17,8 C 58 % 1023,5 hPa 0,0 mm 0,0 km/h (0 Bft) SE 135 0 min 0 W/m 9,4 C 17,8 C 0,0 km/h (0 Bft)
30/09/2011 22:25 17,6 C 59 % 1023,5 hPa 0,0 mm 0,0 km/h (0 Bft) SE 135 0 min 0 W/m 9,5 C 17,6 C 0,0 km/h (0 Bft)
30/09/2011 22:30 17,5 C 59 % 1023,6 hPa 0,0 mm 0,0 km/h (0 Bft) SE 135 0 min 0 W/m 9,4 C 17,5 C 0,0 km/h (0 Bft)
30/09/2011 22:35 17,4 C 60 % 1023,6 hPa 0,0 mm 0,0 km/h (0 Bft) E-NE 67 0 min 0 W/m 9,6 C 17,4 C 0,0 km/h (0 Bft)
30/09/2011 22:40 17,3 C 60 % 1023,5 hPa 0,0 mm 0,0 km/h (0 Bft) E-NE 67 0 min 0 W/m 9,5 C 17,3 C 0,0 km/h (0 Bft)
30/09/2011 22:45 17,3 C 61 % 1023,6 hPa 0,0 mm 0,0 km/h (0 Bft) E-SE 112 0 min 0 W/m 9,7 C 17,3 C 0,0 km/h (0 Bft)
30/09/2011 22:50 17,3 C 61 % 1023,7 hPa 0,0 mm 0,0 km/h (0 Bft) E-SE 112 0 min 0 W/m 9,7 C 17,3 C 0,0 km/h (0 Bft)
30/09/2011 22:55 17,2 C 62 % 1023,8 hPa 0,0 mm 0,0 km/h (0 Bft) E-SE 112 0 min 0 W/m 9,9 C 17,2 C 0,0 km/h (0 Bft)
30/09/2011 23:00 17,1 C 63 % 1023,7 hPa 0,0 mm 0,0 km/h (0 Bft) SE 135 0 min 0 W/m 10,0 C 17,1 C 0,0 km/h (0 Bft)
30/09/2011 23:05 17,1 C 64 % 1023,7 hPa 0,0 mm 0,0 km/h (0 Bft) E-SE 112 0 min 0 W/m 10,2 C 17,1 C 0,0 km/h (0 Bft)
30/09/2011 23:10 17,1 C 64 % 1023,6 hPa 0,0 mm 0,0 km/h (0 Bft) SE 135 0 min 0 W/m 10,2 C 17,1 C 0,0 km/h (0 Bft)
30/09/2011 23:15 16,9 C 64 % 1023,7 hPa 0,0 mm 0,7 km/h (0 Bft) E 90 0 min 0 W/m 10,0 C 16,9 C 4,0 km/h (1 Bft)
30/09/2011 23:20 17,0 C 65 % 1023,7 hPa 0,0 mm 3,2 km/h (1 Bft) E 90 0 min 0 W/m 10,4 C 17,0 C 4,3 km/h (1 Bft)
30/09/2011 23:25 17,1 C 65 % 1023,8 hPa 0,0 mm 0,0 km/h (0 Bft) E-NE 67 0 min 0 W/m 10,5 C 17,1 C 0,0 km/h (0 Bft)
30/09/2011 23:30 17,1 C 65 % 1023,8 hPa 0,0 mm 0,0 km/h (0 Bft) E-SE 112 0 min 0 W/m 10,5 C 17,1 C 2,9 km/h (1 Bft)
30/09/2011 23:35 17,0 C 66 % 1023,7 hPa 0,0 mm 0,0 km/h (0 Bft) E-SE 112 0 min 0 W/m 10,6 C 17,0 C 0,0 km/h (0 Bft)
30/09/2011 23:40 16,9 C 66 % 1023,8 hPa 0,0 mm 0,0 km/h (0 Bft) E-SE 112 0 min 0 W/m 10,5 C 16,9 C 0,0 km/h (0 Bft)
30/09/2011 23:45 16,8 C 66 % 1023,7 hPa 0,0 mm 0,0 km/h (0 Bft) E-SE 112 0 min 0 W/m 10,4 C 16,8 C 0,0 km/h (0 Bft)
30/09/2011 23:50 16,6 C 67 % 1023,7 hPa 0,0 mm 0,0 km/h (0 Bft) N 360 0 min 0 W/m 10,4 C 16,6 C 0,0 km/h (0 Bft)
30/09/2011 23:55 16,5 C 68 % 1023,7 hPa 0,0 mm 0,0 km/h (0 Bft) E-SE 112 0 min 0 W/m 10,6 C 16,5 C 0,0 km/h (0 Bft)
01/10/2011 00:00 16,5 C 68 % 1023,7 hPa 0,0 mm 2,2 km/h (1 Bft) E-SE 112 0 min 0 W/m 10,6 C 16,5 C 4,7 km/h (1 Bft)
01/10/2011 00:05 16,5 C 70 % 1023,6 hPa 0,0 mm 0,4 km/h (0 Bft) S-SE 157 0 min 0 W/m 11,0 C 16,5 C 0,4 km/h (0 Bft)
01/10/2011 00:10 16,6 C 70 % 1023,7 hPa 0,0 mm 2,5 km/h (1 Bft) E-SE 112 0 min 0 W/m 11,1 C 16,6 C 6,5 km/h (2 Bft)
01/10/2011 00:15 16,6 C 71 % 1023,6 hPa 0,0 mm 3,6 km/h (1 Bft) E-SE 112 0 min 0 W/m 11,3 C 16,6 C 6,5 km/h (2 Bft)
01/10/2011 00:20 16,6 C 70 % 1023,6 hPa 0,0 mm 0,4 km/h (0 Bft) E-NE 67 0 min 0 W/m 11,1 C 16,6 C 0,4 km/h (0 Bft)
01/10/2011 00:25 16,6 C 70 % 1023,5 hPa 0,0 mm 1,4 km/h (1 Bft) E 90 0 min 0 W/m 11,1 C 16,6 C 3,6 km/h (1 Bft)
01/10/2011 00:30 16,5 C 71 % 1023,5 hPa 0,0 mm 1,8 km/h (1 Bft) E 90 0 min 0 W/m 11,2 C 16,5 C 4,0 km/h (1 Bft)
01/10/2011 00:35 16,4 C 71 % 1023,5 hPa 0,0 mm 2,5 km/h (1 Bft) E-SE 112 0 min 0 W/m 11,1 C 16,4 C 4,0 km/h (1 Bft)
01/10/2011 00:40 16,4 C 71 % 1023,5 hPa 0,0 mm 1,4 km/h (1 Bft) E 90 0 min 0 W/m 11,1 C 16,4 C 3,2 km/h (1 Bft)
01/10/2011 00:45 16,3 C 71 % 1023,4 hPa 0,0 mm 0,0 km/h (0 Bft) E-SE 112 0 min 0 W/m 11,0 C 16,3 C 0,0 km/h (0 Bft)
01/10/2011 00:50 16,2 C 72 % 1023,5 hPa 0,0 mm 1,4 km/h (1 Bft) E 90 0 min 0 W/m 11,1 C 16,2 C 3,2 km/h (1 Bft)
01/10/2011 00:55 16,2 C 72 % 1023,6 hPa 0,0 mm 2,5 km/h (1 Bft) E-SE 112 0 min 0 W/m 11,1 C 16,2 C 4,3 km/h (1 Bft)
01/10/2011 01:00 16,1 C 73 % 1023,5 hPa 0,0 mm 3,2 km/h (1 Bft) E 90 0 min 0 W/m 11,3 C 16,1 C 3,2 km/h (1 Bft)
01/10/2011 01:05 16,1 C 73 % 1023,5 hPa 0,0 mm 1,1 km/h (1 Bft) E-SE 112 0 min 0 W/m 11,3 C 16,1 C 4,3 km/h (1 Bft)
01/10/2011 01:10 15,9 C 73 % 1023,5 hPa 0,0 mm 3,2 km/h (1 Bft) S-SE 157 0 min 0 W/m 11,1 C 15,9 C 6,1 km/h (2 Bft)
01/10/2011 01:15 15,9 C 73 % 1023,5 hPa 0,0 mm 2,9 km/h (1 Bft) E-SE 112 0 min 0 W/m 11,1 C 15,9 C 4,0 km/h (1 Bft)
01/10/2011 01:20 15,9 C 74 % 1023,5 hPa 0,0 mm 3,6 km/h (1 Bft) E-SE 112 0 min 0 W/m 11,3 C 15,9 C 6,8 km/h (2 Bft)
01/10/2011 01:25 15,8 C 74 % 1023,4 hPa 0,0 mm 2,2 km/h (1 Bft) E 90 0 min 0 W/m 11,2 C 15,8 C 4,3 km/h (1 Bft)
01/10/2011 01:30 15,8 C 74 % 1023,5 hPa 0,0 mm 0,0 km/h (0 Bft) E-SE 112 0 min 0 W/m 11,2 C 15,8 C 4,0 km/h (1 Bft)
01/10/2011 01:35 15,8 C 74 % 1023,4 hPa 0,0 mm 3,2 km/h (1 Bft) E-SE 112 0 min 0 W/m 11,2 C 15,8 C 5,0 km/h (1 Bft)
01/10/2011 01:40 15,7 C 75 % 1023,4 hPa 0,0 mm 2,9 km/h (1 Bft) E 90 0 min 0 W/m 11,3 C 15,7 C 6,1 km/h (2 Bft)
01/10/2011 01:45 15,7 C 75 % 1023,3 hPa 0,0 mm 2,5 km/h (1 Bft) E 90 0 min 0 W/m 11,3 C 15,7 C 7,2 km/h (2 Bft)
01/10/2011 01:50 15,6 C 75 % 1023,3 hPa 0,0 mm 3,6 km/h (1 Bft) E 90 0 min 0 W/m 11,2 C 15,6 C 8,6 km/h (2 Bft)
01/10/2011 01:55 15,5 C 75 % 1023,3 hPa 0,0 mm 0,0 km/h (0 Bft) E-NE 67 0 min 0 W/m 11,1 C 15,5 C 0,0 km/h (0 Bft)
01/10/2011 02:00 15,4 C 75 % 1023,4 hPa 0,0 mm 1,8 km/h (1 Bft) E 90 0 min 0 W/m 11,0 C 15,4 C 1,8 km/h (1 Bft)
01/10/2011 02:05 15,2 C 75 % 1023,4 hPa 0,0 mm 1,8 km/h (1 Bft) E-SE 112 0 min 0 W/m 10,8 C 15,2 C 3,6 km/h (1 Bft)
01/10/2011 02:10 15,1 C 75 % 1023,5 hPa 0,0 mm 1,1 km/h (1 Bft) SE 135 0 min 0 W/m 10,7 C 15,1 C 4,3 km/h (1 Bft)
01/10/2011 02:15 14,9 C 75 % 1023,5 hPa 0,0 mm 0,0 km/h (0 Bft) E 90 0 min 0 W/m 10,5 C 14,9 C 0,0 km/h (0 Bft)
01/10/2011 02:20 14,8 C 75 % 1023,5 hPa 0,0 mm 0,7 km/h (0 Bft) E 90 0 min 0 W/m 10,4 C 14,8 C 4,3 km/h (1 Bft)
01/10/2011 02:25 14,6 C 75 % 1023,5 hPa 0,0 mm 1,1 km/h (1 Bft) E 90 0 min 0 W/m 10,2 C 14,6 C 1,1 km/h (1 Bft)
01/10/2011 02:30 14,5 C 75 % 1023,4 hPa 0,0 mm 1,8 km/h (1 Bft) E 90 0 min 0 W/m 10,1 C 14,5 C 4,3 km/h (1 Bft)
01/10/2011 02:35 14,4 C 75 % 1023,5 hPa 0,0 mm 1,1 km/h (1 Bft) E-SE 112 0 min 0 W/m 10,0 C 14,4 C 3,2 km/h (1 Bft)
01/10/2011 02:40 14,4 C 75 % 1023,6 hPa 0,0 mm 0,4 km/h (0 Bft) E-SE 112 0 min 0 W/m 10,0 C 14,4 C 0,4 km/h (0 Bft)
01/10/2011 02:45 14,4 C 75 % 1023,5 hPa 0,0 mm 3,2 km/h (1 Bft) E-SE 112 0 min 0 W/m 10,0 C 14,4 C 4,0 km/h (1 Bft)
01/10/2011 02:50 14,3 C 75 % 1023,6 hPa 0,0 mm 0,4 km/h (0 Bft) E-SE 112 0 min 0 W/m 9,9 C 14,3 C 3,6 km/h (1 Bft)
01/10/2011 02:55 14,3 C 74 % 1023,6 hPa 0,0 mm 2,9 km/h (1 Bft) E 90 0 min 0 W/m 9,7 C 14,3 C 4,3 km/h (1 Bft)
01/10/2011 03:02 14,4 C 75 % 1023,6 hPa 0,0 mm 1,1 km/h (1 Bft) E-SE 112 0 min 0 W/m 10,0 C 14,4 C 3,6 km/h (1 Bft)
01/10/2011 03:05 14,4 C 74 % 1023,5 hPa 0,0 mm 0,4 km/h (0 Bft) E-SE 112 0 min 0 W/m 9,8 C 14,4 C 2,9 km/h (1 Bft)
01/10/2011 03:10 14,4 C 74 % 1023,6 hPa 0,0 mm 0,0 km/h (0 Bft) E-SE 112 0 min 0 W/m 9,8 C 14,4 C 0,0 km/h (0 Bft)
01/10/2011 03:15 14,4 C 73 % 1023,6 hPa 0,0 mm 1,4 km/h (1 Bft) E 90 0 min 0 W/m 9,6 C 14,4 C 1,4 km/h (1 Bft)
01/10/2011 03:20 14,3 C 73 % 1023,6 hPa 0,0 mm 2,9 km/h (1 Bft) E 90 0 min 0 W/m 9,5 C 14,3 C 3,6 km/h (1 Bft)
01/10/2011 03:25 14,3 C 73 % 1023,5 hPa 0,0 mm 0,4 km/h (0 Bft) E-SE 112 0 min 0 W/m 9,5 C 14,3 C 3,2 km/h (1 Bft)
01/10/2011 03:30 14,3 C 73 % 1023,4 hPa 0,0 mm 0,4 km/h (0 Bft) E 90 0 min 0 W/m 9,5 C 14,3 C 0,4 km/h (0 Bft)
01/10/2011 03:35 14,4 C 73 % 1023,4 hPa 0,0 mm 1,4 km/h (1 Bft) E-SE 112 0 min 0 W/m 9,6 C 14,4 C 4,0 km/h (1 Bft)
01/10/2011 03:40 14,4 C 73 % 1023,4 hPa 0,0 mm 0,0 km/h (0 Bft) E-SE 112 0 min 0 W/m 9,6 C 14,4 C 0,0 km/h (0 Bft)
01/10/2011 03:45 14,5 C 72 % 1023,3 hPa 0,0 mm 0,7 km/h (0 Bft) E 90 0 min 0 W/m 9,5 C 14,5 C 3,6 km/h (1 Bft)
01/10/2011 03:50 14,6 C 72 % 1023,3 hPa 0,0 mm 2,5 km/h (1 Bft) E 90 0 min 0 W/m 9,6 C 14,6 C 3,6 km/h (1 Bft)
01/10/2011 03:55 14,7 C 72 % 1023,3 hPa 0,0 mm 0,0 km/h (0 Bft) E-SE 112 0 min 0 W/m 9,7 C 14,7 C 3,6 km/h (1 Bft)
01/10/2011 04:00 14,8 C 72 % 1023,2 hPa 0,0 mm 0,4 km/h (0 Bft) E-SE 112 0 min 0 W/m 9,8 C 14,8 C 0,4 km/h (0 Bft)
01/10/2011 04:05 14,8 C 71 % 1023,2 hPa 0,0 mm 1,4 km/h (1 Bft) E 90 0 min 0 W/m 9,6 C 14,8 C 4,3 km/h (1 Bft)
01/10/2011 04:10 14,8 C 71 % 1023,2 hPa 0,0 mm 1,1 km/h (1 Bft) E-SE 112 0 min 0 W/m 9,6 C 14,8 C 4,0 km/h (1 Bft)
01/10/2011 04:15 14,8 C 71 % 1023,2 hPa 0,0 mm 0,0 km/h (0 Bft) E-SE 112 0 min 0 W/m 9,6 C 14,8 C 0,0 km/h (0 Bft)
01/10/2011 04:20 14,8 C 71 % 1023,3 hPa 0,0 mm 1,8 km/h (1 Bft) E-SE 112 0 min 0 W/m 9,6 C 14,8 C 4,3 km/h (1 Bft)
01/10/2011 04:25 14,8 C 71 % 1023,3 hPa 0,0 mm 2,2 km/h (1 Bft) E 90 0 min 0 W/m 9,6 C 14,8 C 4,0 km/h (1 Bft)
01/10/2011 04:30 14,8 C 70 % 1023,2 hPa 0,0 mm 1,1 km/h (1 Bft) SE 135 0 min 0 W/m 9,4 C 14,8 C 3,6 km/h (1 Bft)
01/10/2011 04:35 14,8 C 70 % 1023,2 hPa 0,0 mm 0,7 km/h (0 Bft) SE 135 0 min 0 W/m 9,4 C 14,8 C 0,7 km/h (0 Bft)
01/10/2011 04:40 14,8 C 70 % 1023,2 hPa 0,0 mm 0,7 km/h (0 Bft) SE 135 0 min 0 W/m 9,4 C 14,8 C 4,3 km/h (1 Bft)
01/10/2011 04:45 14,8 C 70 % 1023,2 hPa 0,0 mm 0,0 km/h (0 Bft) S-SE 157 0 min 0 W/m 9,4 C 14,8 C 3,6 km/h (1 Bft)
01/10/2011 04:50 14,9 C 69 % 1023,1 hPa 0,0 mm 0,4 km/h (0 Bft) SE 135 0 min 0 W/m 9,3 C 14,9 C 3,6 km/h (1 Bft)
01/10/2011 04:55 14,9 C 69 % 1023,1 hPa 0,0 mm 1,8 km/h (1 Bft) SE 135 0 min 0 W/m 9,3 C 14,9 C 3,6 km/h (1 Bft)
01/10/2011 05:00 14,9 C 68 % 1023,2 hPa 0,0 mm 4,0 km/h (1 Bft) SE 135 0 min 0 W/m 9,0 C 14,9 C 6,5 km/h (2 Bft)
01/10/2011 05:05 15,1 C 68 % 1023,1 hPa 0,0 mm 4,7 km/h (1 Bft) SE 135 0 min 0 W/m 9,2 C 15,1 C 4,7 km/h (1 Bft)
01/10/2011 05:10 15,2 C 68 % 1023,2 hPa 0,0 mm 4,0 km/h (1 Bft) E-SE 112 0 min 0 W/m 9,3 C 15,2 C 4,3 km/h (1 Bft)
01/10/2011 05:15 15,3 C 67 % 1023,1 hPa 0,0 mm 2,2 km/h (1 Bft) E-SE 112 0 min 0 W/m 9,2 C 15,3 C 3,2 km/h (1 Bft)
01/10/2011 05:20 15,5 C 66 % 1023,0 hPa 0,0 mm 3,2 km/h (1 Bft) E 90 0 min 0 W/m 9,2 C 15,5 C 3,6 km/h (1 Bft)
01/10/2011 05:25 15,6 C 65 % 1023,0 hPa 0,0 mm 4,7 km/h (1 Bft) E-SE 112 0 min 0 W/m 9,0 C 15,6 C 6,8 km/h (2 Bft)
01/10/2011 05:30 15,8 C 65 % 1023,1 hPa 0,0 mm 5,8 km/h (2 Bft) E-NE 67 0 min 0 W/m 9,2 C 15,8 C 6,8 km/h (2 Bft)
01/10/2011 05:35 15,8 C 64 % 1023,0 hPa 0,0 mm 2,5 km/h (1 Bft) SE 135 0 min 0 W/m 9,0 C 15,8 C 6,5 km/h (2 Bft)
01/10/2011 05:40 15,9 C 64 % 1023,1 hPa 0,0 mm 4,0 km/h (1 Bft) E 90 0 min 0 W/m 9,1 C 15,9 C 7,9 km/h (2 Bft)
01/10/2011 05:45 15,9 C 64 % 1023,1 hPa 0,0 mm 4,0 km/h (1 Bft) E-NE 67 0 min 0 W/m 9,1 C 15,9 C 6,5 km/h (2 Bft)
01/10/2011 05:50 15,9 C 64 % 1023,1 hPa 0,0 mm 2,9 km/h (1 Bft) E-SE 112 0 min 0 W/m 9,1 C 15,9 C 4,3 km/h (1 Bft)
01/10/2011 05:55 15,9 C 64 % 1023,2 hPa 0,0 mm 2,5 km/h (1 Bft) E-SE 112 0 min 0 W/m 9,1 C 15,9 C 6,5 km/h (2 Bft)
01/10/2011 06:00 15,8 C 64 % 1023,2 hPa 0,0 mm 3,6 km/h (1 Bft) E-SE 112 0 min 0 W/m 9,0 C 15,8 C 10,8 km/h (2 Bft)
01/10/2011 06:05 15,8 C 64 % 1023,3 hPa 0,0 mm 2,2 km/h (1 Bft) E-SE 112 0 min 0 W/m 9,0 C 15,8 C 4,3 km/h (1 Bft)
01/10/2011 06:10 15,8 C 64 % 1023,2 hPa 0,0 mm 2,5 km/h (1 Bft) SE 135 0 min 0 W/m 9,0 C 15,8 C 6,5 km/h (2 Bft)
01/10/2011 06:15 15,6 C 64 % 1023,2 hPa 0,0 mm 4,3 km/h (1 Bft) E-SE 112 0 min 0 W/m 8,8 C 15,6 C 7,6 km/h (2 Bft)
01/10/2011 06:20 15,5 C 64 % 1023,3 hPa 0,0 mm 3,6 km/h (1 Bft) SE 135 0 min 0 W/m 8,7 C 15,5 C 9,0 km/h (2 Bft)
01/10/2011 06:25 15,4 C 65 % 1023,4 hPa 0,0 mm 4,3 km/h (1 Bft) E-SE 112 0 min 0 W/m 8,9 C 15,4 C 7,9 km/h (2 Bft)
01/10/2011 06:30 15,4 C 65 % 1023,3 hPa 0,0 mm 2,9 km/h (1 Bft) SE 135 0 min 0 W/m 8,9 C 15,4 C 4,3 km/h (1 Bft)
01/10/2011 06:35 15,3 C 65 % 1023,3 hPa 0,0 mm 1,8 km/h (1 Bft) E-SE 112 0 min 0 W/m 8,8 C 15,3 C 6,1 km/h (2 Bft)
01/10/2011 06:40 15,1 C 65 % 1023,4 hPa 0,0 mm 0,4 km/h (0 Bft) E-SE 112 0 min 0 W/m 8,6 C 15,1 C 4,3 km/h (1 Bft)
01/10/2011 06:45 15,1 C 65 % 1023,4 hPa 0,0 mm 2,2 km/h (1 Bft) E-SE 112 0 min 0 W/m 8,6 C 15,1 C 3,6 km/h (1 Bft)
01/10/2011 06:50 14,9 C 65 % 1023,4 hPa 0,0 mm 3,6 km/h (1 Bft) E-SE 112 0 min 0 W/m 8,4 C 14,9 C 6,5 km/h (2 Bft)
01/10/2011 06:55 14,9 C 66 % 1023,5 hPa 0,0 mm 1,1 km/h (1 Bft) E-SE 112 0 min 0 W/m 8,6 C 14,9 C 4,3 km/h (1 Bft)
01/10/2011 07:00 14,9 C 66 % 1023,4 hPa 0,0 mm 1,8 km/h (1 Bft) E-SE 112 0 min 0 W/m 8,6 C 14,9 C 1,8 km/h (1 Bft)
01/10/2011 07:05 14,9 C 66 % 1023,6 hPa 0,0 mm 0,0 km/h (0 Bft) E-SE 112 0 min 0 W/m 8,6 C 14,9 C 3,2 km/h (1 Bft)
01/10/2011 07:10 14,9 C 66 % 1023,5 hPa 0,0 mm 2,9 km/h (1 Bft) E-SE 112 0 min 0 W/m 8,6 C 14,9 C 4,3 km/h (1 Bft)
01/10/2011 07:15 14,9 C 66 % 1023,5 hPa 0,0 mm 2,2 km/h (1 Bft) E-SE 112 0 min 0 W/m 8,6 C 14,9 C 4,3 km/h (1 Bft)
01/10/2011 07:20 14,9 C 66 % 1023,6 hPa 0,0 mm 2,2 km/h (1 Bft) E-NE 67 0 min 0 W/m 8,6 C 14,9 C 4,3 km/h (1 Bft)
01/10/2011 07:25 14,8 C 66 % 1023,5 hPa 0,0 mm 4,3 km/h (1 Bft) E-SE 112 0 min 0 W/m 8,5 C 14,8 C 7,6 km/h (2 Bft)
01/10/2011 07:30 14,8 C 66 % 1023,6 hPa 0,0 mm 3,2 km/h (1 Bft) E 90 0 min 0 W/m 8,5 C 14,8 C 6,5 km/h (2 Bft)
01/10/2011 07:35 14,8 C 67 % 1023,6 hPa 0,0 mm 4,3 km/h (1 Bft) SE 135 0 min 0 W/m 8,7 C 14,8 C 7,6 km/h (2 Bft)
01/10/2011 07:40 14,8 C 67 % 1023,6 hPa 0,0 mm 0,7 km/h (0 Bft) E-SE 112 0 min 0 W/m 8,7 C 14,8 C 2,9 km/h (1 Bft)
01/10/2011 07:45 14,8 C 67 % 1023,6 hPa 0,0 mm 1,4 km/h (1 Bft) E-SE 112 0 min 0 W/m 8,7 C 14,8 C 3,6 km/h (1 Bft)
01/10/2011 07:50 14,8 C 67 % 1023,6 hPa 0,0 mm 1,8 km/h (1 Bft) E-SE 112 0 min 0 W/m 8,7 C 14,8 C 6,1 km/h (2 Bft)
01/10/2011 07:55 14,8 C 67 % 1023,6 hPa 0,0 mm 1,1 km/h (1 Bft) SE 135 0 min 0 W/m 8,7 C 14,8 C 3,2 km/h (1 Bft)
01/10/2011 08:00 14,6 C 67 % 1023,6 hPa 0,0 mm 1,1 km/h (1 Bft) S-SE 157 0 min 0 W/m 8,5 C 14,6 C 3,2 km/h (1 Bft)
01/10/2011 08:05 14,6 C 67 % 1023,7 hPa 0,0 mm 1,4 km/h (1 Bft) SE 135 2 min 0 W/m 8,5 C 14,6 C 4,3 km/h (1 Bft)
01/10/2011 08:10 14,4 C 67 % 1023,7 hPa 0,0 mm 0,4 km/h (0 Bft) E-NE 67 2 min 0 W/m 8,4 C 14,4 C 0,4 km/h (0 Bft)
01/10/2011 08:15 14,3 C 67 % 1023,7 hPa 0,0 mm 0,0 km/h (0 Bft) SE 135 2 min 0 W/m 8,3 C 14,3 C 0,0 km/h (0 Bft)
01/10/2011 08:20 14,2 C 68 % 1023,7 hPa 0,0 mm 0,0 km/h (0 Bft) S-SE 157 2 min 0 W/m 8,4 C 14,2 C 2,9 km/h (1 Bft)
01/10/2011 08:25 14,0 C 68 % 1023,8 hPa 0,0 mm 0,0 km/h (0 Bft) E 90 2 min 0 W/m 8,2 C 14,0 C 0,0 km/h (0 Bft)
01/10/2011 08:30 13,9 C 68 % 1023,9 hPa 0,0 mm 0,4 km/h (0 Bft) E 90 2 min 0 W/m 8,1 C 13,9 C 3,6 km/h (1 Bft)
01/10/2011 08:35 13,8 C 69 % 1023,9 hPa 0,0 mm 1,4 km/h (1 Bft) E 90 2 min 0 W/m 8,2 C 13,8 C 4,0 km/h (1 Bft)
01/10/2011 08:40 13,8 C 69 % 1023,9 hPa 0,0 mm 0,0 km/h (0 Bft) E-SE 112 2 min 0 W/m 8,2 C 13,8 C 0,0 km/h (0 Bft)
01/10/2011 08:45 13,8 C 69 % 1023,9 hPa 0,0 mm 0,7 km/h (0 Bft) E 90 2 min 0 W/m 8,2 C 13,8 C 4,3 km/h (1 Bft)
01/10/2011 08:50 13,8 C 69 % 1024,0 hPa 0,0 mm 1,1 km/h (1 Bft) E 90 2 min 0 W/m 8,2 C 13,8 C 3,6 km/h (1 Bft)
01/10/2011 08:55 13,9 C 69 % 1024,1 hPa 0,0 mm 0,0 km/h (0 Bft) E 90 2 min 0 W/m 8,3 C 13,9 C 3,2 km/h (1 Bft)
01/10/2011 09:00 14,1 C 69 % 1024,1 hPa 0,0 mm 1,1 km/h (1 Bft) E-NE 67 2 min 0 W/m 8,5 C 14,1 C 1,1 km/h (1 Bft)
01/10/2011 09:05 14,3 C 70 % 1024,1 hPa 0,0 mm 0,4 km/h (0 Bft) E-SE 112 2 min 0 W/m 8,9 C 14,3 C 0,4 km/h (0 Bft)
01/10/2011 09:10 14,6 C 70 % 1024,2 hPa 0,0 mm 1,8 km/h (1 Bft) E-SE 112 0 min 0 W/m 9,2 C 14,6 C 4,0 km/h (1 Bft)
01/10/2011 09:15 14,9 C 69 % 1024,3 hPa 0,0 mm 2,9 km/h (1 Bft) E-SE 112 0 min 0 W/m 9,3 C 14,9 C 4,0 km/h (1 Bft)
01/10/2011 09:20 15,1 C 69 % 1024,3 hPa 0,0 mm 0,7 km/h (0 Bft) E 90 0 min 0 W/m 9,5 C 15,1 C 0,7 km/h (0 Bft)
01/10/2011 09:25 15,4 C 68 % 1024,3 hPa 0,0 mm 4,0 km/h (1 Bft) E-SE 112 0 min 0 W/m 9,5 C 15,4 C 7,9 km/h (2 Bft)
01/10/2011 09:30 15,6 C 68 % 1024,5 hPa 0,0 mm 3,2 km/h (1 Bft) E-NE 67 0 min 0 W/m 9,7 C 15,6 C 6,8 km/h (2 Bft)
01/10/2011 09:35 15,8 C 68 % 1024,5 hPa 0,0 mm 1,1 km/h (1 Bft) E-SE 112 0 min 0 W/m 9,9 C 15,8 C 3,2 km/h (1 Bft)
01/10/2011 09:40 16,1 C 67 % 1024,6 hPa 0,0 mm 0,0 km/h (0 Bft) E-SE 112 0 min 0 W/m 10,0 C 16,1 C 0,0 km/h (0 Bft)
01/10/2011 09:45 16,4 C 67 % 1024,6 hPa 0,0 mm 2,5 km/h (1 Bft) SE 135 0 min 0 W/m 10,3 C 16,4 C 6,1 km/h (2 Bft)
01/10/2011 09:50 16,8 C 66 % 1024,7 hPa 0,0 mm 1,1 km/h (1 Bft) E 90 0 min 0 W/m 10,4 C 16,8 C 2,9 km/h (1 Bft)
01/10/2011 09:55 17,1 C 65 % 1024,6 hPa 0,0 mm 2,5 km/h (1 Bft) E 90 0 min 0 W/m 10,5 C 17,1 C 4,3 km/h (1 Bft)
01/10/2011 10:00 17,5 C 64 % 1024,8 hPa 0,0 mm 1,1 km/h (1 Bft) E 90 0 min 0 W/m 10,6 C 17,5 C 3,6 km/h (1 Bft)
01/10/2011 10:05 17,9 C 64 % 1024,8 hPa 0,0 mm 3,2 km/h (1 Bft) SE 135 0 min 0 W/m 11,0 C 17,9 C 3,2 km/h (1 Bft)
01/10/2011 10:10 18,4 C 63 % 1025,0 hPa 0,0 mm 3,2 km/h (1 Bft) N 360 0 min 0 W/m 11,2 C 18,4 C 3,2 km/h (1 Bft)
01/10/2011 10:15 18,8 C 62 % 1025,0 hPa 0,0 mm 0,0 km/h (0 Bft) SE 135 0 min 0 W/m 11,4 C 18,8 C 3,2 km/h (1 Bft)
01/10/2011 10:20 19,2 C 62 % 1025,0 hPa 0,0 mm 3,6 km/h (1 Bft) SE 135 0 min 0 W/m 11,7 C 19,2 C 3,6 km/h (1 Bft)
01/10/2011 10:25 19,6 C 61 % 1025,0 hPa 0,0 mm 1,8 km/h (1 Bft) SE 135 0 min 0 W/m 11,9 C 19,6 C 4,0 km/h (1 Bft)
01/10/2011 10:30 19,9 C 60 % 1024,9 hPa 0,0 mm 5,4 km/h (2 Bft) E-SE 112 0 min 0 W/m 11,9 C 19,9 C 6,1 km/h (2 Bft)
01/10/2011 10:35 20,4 C 59 % 1025,0 hPa 0,0 mm 0,7 km/h (0 Bft) E 90 0 min 0 W/m 12,1 C 20,4 C 4,0 km/h (1 Bft)
01/10/2011 10:40 20,8 C 58 % 1025,0 hPa 0,0 mm 0,7 km/h (0 Bft) E-NE 67 0 min 0 W/m 12,2 C 20,8 C 3,6 km/h (1 Bft)
01/10/2011 10:45 21,2 C 57 % 1025,0 hPa 0,0 mm 4,3 km/h (1 Bft) E 90 0 min 0 W/m 12,3 C 21,2 C 6,1 km/h (2 Bft)
01/10/2011 10:50 21,6 C 57 % 1025,1 hPa 0,0 mm 1,8 km/h (1 Bft) E 90 0 min 0 W/m 12,7 C 21,6 C 4,3 km/h (1 Bft)
01/10/2011 10:55 22,1 C 57 % 1025,1 hPa 0,0 mm 2,5 km/h (1 Bft) E-SE 112 0 min 0 W/m 13,2 C 22,1 C 4,3 km/h (1 Bft)
01/10/2011 11:00 22,6 C 56 % 1025,2 hPa 0,0 mm 2,9 km/h (1 Bft) E-SE 112 0 min 0 W/m 13,4 C 22,6 C 4,3 km/h (1 Bft)
01/10/2011 11:05 23,0 C 56 % 1025,1 hPa 0,0 mm 1,1 km/h (1 Bft) E-SE 112 0 min 0 W/m 13,7 C 23,0 C 1,1 km/h (1 Bft)
01/10/2011 11:10 23,5 C 55 % 1025,1 hPa 0,0 mm 0,4 km/h (0 Bft) E-SE 112 0 min 0 W/m 13,9 C 23,5 C 3,6 km/h (1 Bft)
01/10/2011 11:15 23,9 C 54 % 1025,2 hPa 0,0 mm 0,4 km/h (0 Bft) E-SE 112 0 min 0 W/m 14,0 C 23,9 C 0,4 km/h (0 Bft)
01/10/2011 11:20 24,5 C 54 % 1025,2 hPa 0,0 mm 0,0 km/h (0 Bft) E-SE 112 0 min 0 W/m 14,6 C 24,5 C 0,0 km/h (0 Bft)
01/10/2011 11:25 25,1 C 54 % 1025,2 hPa 0,0 mm 0,0 km/h (0 Bft) E 90 0 min 0 W/m 15,1 C 25,1 C 0,0 km/h (0 Bft)
01/10/2011 11:30 25,5 C 53 % 1025,1 hPa 0,0 mm 0,4 km/h (0 Bft) E 90 0 min 0 W/m 15,2 C 25,5 C 2,9 km/h (1 Bft)
01/10/2011 11:35 26,1 C 52 % 1025,1 hPa 0,0 mm 0,0 km/h (0 Bft) E 90 0 min 0 W/m 15,5 C 26,1 C 0,0 km/h (0 Bft)
01/10/2011 11:40 26,3 C 52 % 1025,1 hPa 0,0 mm 0,0 km/h (0 Bft) E 90 0 min 0 W/m 15,6 C 26,3 C 0,0 km/h (0 Bft)
01/10/2011 11:45 26,8 C 51 % 1025,1 hPa 0,0 mm 0,0 km/h (0 Bft) E 90 0 min 0 W/m 15,8 C 26,8 C 0,0 km/h (0 Bft)
01/10/2011 11:50 27,1 C 50 % 1025,1 hPa 0,0 mm 0,0 km/h (0 Bft) E 90 0 min 0 W/m 15,8 C 27,1 C 0,0 km/h (0 Bft)
01/10/2011 11:55 27,5 C 49 % 1025,2 hPa 0,0 mm 0,0 km/h (0 Bft) E 90 0 min 0 W/m 15,8 C 27,5 C 0,0 km/h (0 Bft)
01/10/2011 12:00 27,8 C 48 % 1025,1 hPa 0,0 mm 1,1 km/h (1 Bft) S 180 0 min 0 W/m 15,8 C 27,8 C 1,1 km/h (1 Bft)
01/10/2011 12:05 28,3 C 48 % 1025,1 hPa 0,0 mm 2,2 km/h (1 Bft) E 90 0 min 0 W/m 16,2 C 28,3 C 6,5 km/h (2 Bft)
01/10/2011 12:10 28,5 C 43 % 1025,3 hPa 0,0 mm 4,7 km/h (1 Bft) S-SE 157 0 min 0 W/m 14,7 C 28,5 C 4,7 km/h (1 Bft)
01/10/2011 12:15 28,6 C 41 % 1025,3 hPa 0,0 mm 4,3 km/h (1 Bft) S 180 0 min 0 W/m 14,0 C 28,6 C 7,9 km/h (2 Bft)
01/10/2011 12:20 28,6 C 42 % 1025,2 hPa 0,0 mm 3,2 km/h (1 Bft) S-SE 157 0 min 0 W/m 14,4 C 28,6 C 6,8 km/h (2 Bft)
01/10/2011 12:25 28,8 C 40 % 1025,2 hPa 0,0 mm 4,0 km/h (1 Bft) S 180 0 min 0 W/m 13,8 C 28,8 C 7,2 km/h (2 Bft)
01/10/2011 12:30 28,8 C 40 % 1025,2 hPa 0,0 mm 6,5 km/h (2 Bft) S-SE 157 0 min 0 W/m 13,8 C 28,8 C 9,0 km/h (2 Bft)
01/10/2011 12:35 28,8 C 40 % 1025,1 hPa 0,0 mm 1,1 km/h (1 Bft) S-SE 157 0 min 0 W/m 13,8 C 28,8 C 2,9 km/h (1 Bft)
01/10/2011 12:40 28,8 C 40 % 1025,1 hPa 0,0 mm 3,6 km/h (1 Bft) SE 135 0 min 0 W/m 13,8 C 28,8 C 6,1 km/h (2 Bft)
01/10/2011 12:45 28,9 C 39 % 1025,1 hPa 0,0 mm 6,8 km/h (2 Bft) S-SE 157 0 min 0 W/m 13,5 C 28,9 C 8,3 km/h (2 Bft)
01/10/2011 12:50 28,9 C 40 % 1025,0 hPa 0,0 mm 4,7 km/h (1 Bft) S-SO 202 0 min 0 W/m 13,9 C 28,9 C 9,4 km/h (2 Bft)
01/10/2011 12:55 28,9 C 39 % 1025,0 hPa 0,0 mm 1,4 km/h (1 Bft) E 90 0 min 0 W/m 13,5 C 28,9 C 3,2 km/h (1 Bft)
01/10/2011 13:00 29,1 C 39 % 1024,9 hPa 0,0 mm 3,6 km/h (1 Bft) SE 135 0 min 0 W/m 13,7 C 29,1 C 9,7 km/h (2 Bft)
01/10/2011 13:05 29,2 C 39 % 1025,0 hPa 0,0 mm 1,8 km/h (1 Bft) S-SO 202 0 min 0 W/m 13,8 C 29,2 C 5,0 km/h (1 Bft)
01/10/2011 13:10 29,4 C 39 % 1025,0 hPa 0,0 mm 3,6 km/h (1 Bft) S-SO 202 0 min 0 W/m 14,0 C 29,4 C 8,6 km/h (2 Bft)
01/10/2011 13:15 29,4 C 38 % 1024,9 hPa 0,0 mm 3,6 km/h (1 Bft) SO 225 0 min 0 W/m 13,6 C 29,4 C 7,2 km/h (2 Bft)
01/10/2011 13:20 29,4 C 39 % 1024,9 hPa 0,0 mm 2,5 km/h (1 Bft) S 180 0 min 0 W/m 14,0 C 29,4 C 3,6 km/h (1 Bft)
01/10/2011 13:25 29,4 C 39 % 1024,9 hPa 0,0 mm 0,0 km/h (0 Bft) SO 225 0 min 0 W/m 14,0 C 29,4 C 1,4 km/h (1 Bft)
01/10/2011 13:30 29,5 C 39 % 1024,9 hPa 0,0 mm 2,9 km/h (1 Bft) S-SE 157 0 min 0 W/m 14,1 C 29,5 C 4,7 km/h (1 Bft)
01/10/2011 13:35 29,6 C 39 % 1024,9 hPa 0,0 mm 0,0 km/h (0 Bft) S-SE 157 0 min 0 W/m 14,2 C 29,6 C 0,0 km/h (0 Bft)
01/10/2011 13:40 29,9 C 39 % 1024,8 hPa 0,0 mm 5,0 km/h (1 Bft) E-NE 67 0 min 0 W/m 14,4 C 29,9 C 5,0 km/h (1 Bft)
01/10/2011 13:45 29,9 C 38 % 1024,9 hPa 0,0 mm 2,2 km/h (1 Bft) NE 45 0 min 0 W/m 14,0 C 29,9 C 7,2 km/h (2 Bft)
01/10/2011 13:50 29,8 C 37 % 1024,9 hPa 0,0 mm 3,2 km/h (1 Bft) E 90 0 min 0 W/m 13,5 C 29,8 C 4,0 km/h (1 Bft)
01/10/2011 13:55 29,8 C 37 % 1024,9 hPa 0,0 mm 3,6 km/h (1 Bft) E-SE 112 0 min 0 W/m 13,5 C 29,8 C 6,5 km/h (2 Bft)
01/10/2011 14:00 29,5 C 38 % 1024,8 hPa 0,0 mm 2,2 km/h (1 Bft) E 90 0 min 0 W/m 13,7 C 29,5 C 6,5 km/h (2 Bft)
01/10/2011 14:05 29,5 C 38 % 1024,8 hPa 0,0 mm 5,4 km/h (2 Bft) SE 135 0 min 0 W/m 13,7 C 29,5 C 6,8 km/h (2 Bft)
01/10/2011 14:10 29,5 C 37 % 1024,7 hPa 0,0 mm 4,0 km/h (1 Bft) S-SO 202 0 min 0 W/m 13,3 C 29,5 C 4,0 km/h (1 Bft)
01/10/2011 14:15 29,5 C 38 % 1024,6 hPa 0,0 mm 0,0 km/h (0 Bft) S-SO 202 0 min 0 W/m 13,7 C 29,5 C 0,0 km/h (0 Bft)
01/10/2011 14:20 29,8 C 37 % 1024,5 hPa 0,0 mm 4,0 km/h (1 Bft) S 180 0 min 0 W/m 13,5 C 29,8 C 4,0 km/h (1 Bft)
01/10/2011 14:25 29,8 C 37 % 1024,4 hPa 0,0 mm 5,4 km/h (2 Bft) S-SE 157 0 min 0 W/m 13,5 C 29,8 C 7,6 km/h (2 Bft)
01/10/2011 14:30 29,9 C 36 % 1024,4 hPa 0,0 mm 1,8 km/h (1 Bft) E 90 0 min 0 W/m 13,2 C 29,9 C 6,1 km/h (2 Bft)
01/10/2011 14:35 30,0 C 36 % 1024,4 hPa 0,0 mm 0,7 km/h (0 Bft) S-SE 157 0 min 0 W/m 13,3 C 30,0 C 3,6 km/h (1 Bft)
01/10/2011 14:40 30,1 C 36 % 1024,3 hPa 0,0 mm 1,1 km/h (1 Bft) E-SE 112 0 min 0 W/m 13,4 C 30,1 C 4,0 km/h (1 Bft)
01/10/2011 14:45 30,2 C 36 % 1024,3 hPa 0,0 mm 2,9 km/h (1 Bft) S 180 0 min 0 W/m 13,4 C 30,2 C 6,5 km/h (2 Bft)
01/10/2011 14:50 30,1 C 35 % 1024,3 hPa 0,0 mm 4,0 km/h (1 Bft) SE 135 0 min 0 W/m 12,9 C 30,1 C 6,5 km/h (2 Bft)
01/10/2011 14:55 29,9 C 35 % 1024,2 hPa 0,0 mm 0,7 km/h (0 Bft) E-SE 112 0 min 0 W/m 12,8 C 29,9 C 0,7 km/h (0 Bft)
01/10/2011 15:00 29,9 C 35 % 1024,1 hPa 0,0 mm 2,2 km/h (1 Bft) S 180 0 min 0 W/m 12,8 C 29,9 C 4,0 km/h (1 Bft)
01/10/2011 15:05 29,9 C 36 % 1024,1 hPa 0,0 mm 4,0 km/h (1 Bft) E 90 0 min 0 W/m 13,2 C 29,9 C 9,0 km/h (2 Bft)
01/10/2011 15:10 29,9 C 35 % 1023,9 hPa 0,0 mm 1,4 km/h (1 Bft) E-NE 67 0 min 0 W/m 12,8 C 29,9 C 5,8 km/h (2 Bft)
01/10/2011 15:15 29,9 C 36 % 1023,9 hPa 0,0 mm 0,7 km/h (0 Bft) E-NE 67 0 min 0 W/m 13,2 C 29,9 C 0,7 km/h (0 Bft)
01/10/2011 15:20 30,1 C 35 % 1023,9 hPa 0,0 mm 0,7 km/h (0 Bft) E-SE 112 0 min 0 W/m 12,9 C 30,1 C 0,7 km/h (0 Bft)
01/10/2011 15:25 30,1 C 36 % 1023,8 hPa 0,0 mm 3,2 km/h (1 Bft) E-NE 67 0 min 0 W/m 13,4 C 30,1 C 6,5 km/h (2 Bft)
01/10/2011 15:30 30,1 C 34 % 1023,8 hPa 0,0 mm 2,9 km/h (1 Bft) S 180 0 min 0 W/m 12,5 C 30,1 C 2,9 km/h (1 Bft)
01/10/2011 15:35 29,8 C 34 % 1023,7 hPa 0,0 mm 1,4 km/h (1 Bft) E-SE 112 0 min 0 W/m 12,2 C 29,8 C 3,2 km/h (1 Bft)
01/10/2011 15:40 29,8 C 33 % 1023,7 hPa 0,0 mm 7,9 km/h (2 Bft) S-SO 202 0 min 0 W/m 11,8 C 29,8 C 11,5 km/h (2 Bft)
01/10/2011 15:45 29,8 C 33 % 1023,7 hPa 0,0 mm 2,5 km/h (1 Bft) SE 135 0 min 0 W/m 11,8 C 29,8 C 3,6 km/h (1 Bft)
01/10/2011 15:50 29,6 C 34 % 1023,5 hPa 0,0 mm 6,5 km/h (2 Bft) E-SE 112 0 min 0 W/m 12,1 C 29,6 C 10,4 km/h (2 Bft)
01/10/2011 15:55 29,6 C 33 % 1023,5 hPa 0,0 mm 0,0 km/h (0 Bft) E 90 0 min 0 W/m 11,6 C 29,6 C 0,0 km/h (0 Bft)
01/10/2011 16:00 29,7 C 34 % 1023,5 hPa 0,0 mm 1,4 km/h (1 Bft) SO 225 0 min 0 W/m 12,1 C 29,7 C 4,3 km/h (1 Bft)
01/10/2011 16:05 29,8 C 33 % 1023,5 hPa 0,0 mm 0,7 km/h (0 Bft) NE 45 0 min 0 W/m 11,8 C 29,8 C 3,6 km/h (1 Bft)
01/10/2011 16:10 29,8 C 34 % 1023,4 hPa 0,0 mm 0,7 km/h (0 Bft) E-NE 67 0 min 0 W/m 12,2 C 29,8 C 7,2 km/h (2 Bft)
01/10/2011 16:15 29,8 C 34 % 1023,4 hPa 0,0 mm 0,4 km/h (0 Bft) N-NE 22 0 min 0 W/m 12,2 C 29,8 C 3,6 km/h (1 Bft)
01/10/2011 16:20 29,8 C 33 % 1023,4 hPa 0,0 mm 2,2 km/h (1 Bft) N-NE 22 0 min 0 W/m 11,8 C 29,8 C 5,8 km/h (2 Bft)
01/10/2011 16:25 29,7 C 34 % 1023,4 hPa 0,0 mm 0,0 km/h (0 Bft) E-NE 67 0 min 0 W/m 12,1 C 29,7 C 0,0 km/h (0 Bft)
01/10/2011 16:30 29,8 C 34 % 1023,4 hPa 0,0 mm 0,4 km/h (0 Bft) E-SE 112 0 min 0 W/m 12,2 C 29,8 C 4,0 km/h (1 Bft)
01/10/2011 16:35 29,5 C 33 % 1023,4 hPa 0,0 mm 1,8 km/h (1 Bft) SE 135 0 min 0 W/m 11,5 C 29,5 C 4,0 km/h (1 Bft)
01/10/2011 16:40 29,4 C 34 % 1023,4 hPa 0,0 mm 1,8 km/h (1 Bft) E-SE 112 0 min 0 W/m 11,9 C 29,4 C 3,6 km/h (1 Bft)
01/10/2011 16:45 29,4 C 34 % 1023,4 hPa 0,0 mm 2,9 km/h (1 Bft) E-SE 112 0 min 0 W/m 11,9 C 29,4 C 4,3 km/h (1 Bft)
01/10/2011 16:50 29,3 C 33 % 1023,5 hPa 0,0 mm 0,0 km/h (0 Bft) E-NE 67 0 min 0 W/m 11,3 C 29,3 C 0,0 km/h (0 Bft)
01/10/2011 16:55 29,3 C 33 % 1023,4 hPa 0,0 mm 1,1 km/h (1 Bft) NE 45 0 min 0 W/m 11,3 C 29,3 C 4,3 km/h (1 Bft)
01/10/2011 17:00 29,3 C 33 % 1023,5 hPa 0,0 mm 2,9 km/h (1 Bft) E-SE 112 0 min 0 W/m 11,3 C 29,3 C 2,9 km/h (1 Bft)
01/10/2011 17:05 29,3 C 33 % 1023,5 hPa 0,0 mm 0,4 km/h (0 Bft) E 90 0 min 0 W/m 11,3 C 29,3 C 0,4 km/h (0 Bft)
01/10/2011 17:10 29,2 C 33 % 1023,5 hPa 0,0 mm 2,5 km/h (1 Bft) E-NE 67 0 min 0 W/m 11,3 C 29,2 C 6,1 km/h (2 Bft)
01/10/2011 17:15 29,1 C 33 % 1023,4 hPa 0,0 mm 0,0 km/h (0 Bft) SE 135 0 min 0 W/m 11,2 C 29,1 C 0,0 km/h (0 Bft)
01/10/2011 17:20 29,1 C 33 % 1023,3 hPa 0,0 mm 0,7 km/h (0 Bft) E-NE 67 0 min 0 W/m 11,2 C 29,1 C 0,7 km/h (0 Bft)
01/10/2011 17:25 29,1 C 34 % 1023,3 hPa 0,0 mm 1,4 km/h (1 Bft) N-NE 22 0 min 0 W/m 11,6 C 29,1 C 1,4 km/h (1 Bft)
01/10/2011 17:30 29,1 C 34 % 1023,3 hPa 0,0 mm 0,7 km/h (0 Bft) N-NE 22 0 min 0 W/m 11,6 C 29,1 C 4,0 km/h (1 Bft)
01/10/2011 17:35 29,0 C 34 % 1023,3 hPa 0,0 mm 0,0 km/h (0 Bft) E 90 0 min 0 W/m 11,5 C 29,0 C 0,0 km/h (0 Bft)
01/10/2011 17:40 28,8 C 35 % 1023,2 hPa 0,0 mm 0,0 km/h (0 Bft) NE 45 0 min 0 W/m 11,8 C 28,8 C 0,0 km/h (0 Bft)
01/10/2011 17:45 28,8 C 34 % 1023,3 hPa 0,0 mm 0,7 km/h (0 Bft) NE 45 0 min 0 W/m 11,4 C 28,8 C 4,3 km/h (1 Bft)
01/10/2011 17:50 28,7 C 34 % 1023,3 hPa 0,0 mm 0,0 km/h (0 Bft) E 90 0 min 0 W/m 11,3 C 28,7 C 4,0 km/h (1 Bft)
01/10/2011 17:55 28,6 C 35 % 1023,4 hPa 0,0 mm 0,0 km/h (0 Bft) E 90 0 min 0 W/m 11,6 C 28,6 C 0,0 km/h (0 Bft)
01/10/2011 18:00 28,4 C 35 % 1023,3 hPa 0,0 mm 0,0 km/h (0 Bft) E-NE 67 0 min 0 W/m 11,4 C 28,4 C 0,0 km/h (0 Bft)
01/10/2011 18:05 28,3 C 36 % 1023,4 hPa 0,0 mm 0,0 km/h (0 Bft) E-SE 112 0 min 0 W/m 11,8 C 28,3 C 2,9 km/h (1 Bft)
01/10/2011 18:10 28,2 C 36 % 1023,4 hPa 0,0 mm 1,8 km/h (1 Bft) N 360 0 min 0 W/m 11,7 C 28,2 C 4,3 km/h (1 Bft)
01/10/2011 18:15 28,1 C 37 % 1023,4 hPa 0,0 mm 0,0 km/h (0 Bft) E-NE 67 0 min 0 W/m 12,0 C 28,1 C 0,0 km/h (0 Bft)
01/10/2011 18:20 27,9 C 37 % 1023,3 hPa 0,0 mm 0,0 km/h (0 Bft) E-NE 67 0 min 0 W/m 11,8 C 27,9 C 0,0 km/h (0 Bft)
01/10/2011 18:25 27,8 C 37 % 1023,3 hPa 0,0 mm 0,0 km/h (0 Bft) E 90 0 min 0 W/m 11,8 C 27,8 C 3,6 km/h (1 Bft)
01/10/2011 18:30 27,6 C 38 % 1023,4 hPa 0,0 mm 0,0 km/h (0 Bft) E-NE 67 0 min 0 W/m 12,0 C 27,6 C 0,0 km/h (0 Bft)
01/10/2011 18:35 27,4 C 38 % 1023,5 hPa 0,0 mm 0,0 km/h (0 Bft) E-NE 67 0 min 0 W/m 11,8 C 27,4 C 0,0 km/h (0 Bft)
01/10/2011 18:40 27,2 C 38 % 1023,5 hPa 0,0 mm 0,0 km/h (0 Bft) E 90 0 min 0 W/m 11,6 C 27,2 C 0,0 km/h (0 Bft)
01/10/2011 18:45 27,1 C 39 % 1023,5 hPa 0,0 mm 0,4 km/h (0 Bft) E 90 0 min 0 W/m 11,9 C 27,1 C 4,3 km/h (1 Bft)
01/10/2011 18:50 26,9 C 39 % 1023,6 hPa 0,0 mm 0,0 km/h (0 Bft) E-NE 67 0 min 0 W/m 11,8 C 26,9 C 0,0 km/h (0 Bft)
01/10/2011 18:55 26,8 C 39 % 1023,5 hPa 0,0 mm 0,0 km/h (0 Bft) E-NE 67 0 min 0 W/m 11,7 C 26,8 C 0,0 km/h (0 Bft)
01/10/2011 19:00 26,4 C 40 % 1023,5 hPa 0,0 mm 0,0 km/h (0 Bft) E-NE 67 0 min 0 W/m 11,7 C 26,4 C 0,0 km/h (0 Bft)
01/10/2011 19:05 26,2 C 40 % 1023,5 hPa 0,0 mm 0,0 km/h (0 Bft) E-NE 67 0 min 0 W/m 11,5 C 26,2 C 0,0 km/h (0 Bft)
01/10/2011 19:10 25,8 C 40 % 1023,6 hPa 0,0 mm 0,0 km/h (0 Bft) E-NE 67 0 min 0 W/m 11,2 C 25,8 C 0,0 km/h (0 Bft)
01/10/2011 19:15 25,5 C 41 % 1023,6 hPa 0,0 mm 0,0 km/h (0 Bft) E-NE 67 0 min 0 W/m 11,3 C 25,5 C 0,0 km/h (0 Bft)
01/10/2011 19:20 25,2 C 42 % 1023,7 hPa 0,0 mm 0,0 km/h (0 Bft) E-NE 67 0 min 0 W/m 11,4 C 25,2 C 0,0 km/h (0 Bft)
01/10/2011 19:25 24,8 C 42 % 1023,8 hPa 0,0 mm 0,0 km/h (0 Bft) E-NE 67 0 min 0 W/m 11,0 C 24,8 C 0,0 km/h (0 Bft)
01/10/2011 19:30 24,4 C 42 % 1023,7 hPa 0,0 mm 0,0 km/h (0 Bft) E-NE 67 0 min 0 W/m 10,6 C 24,4 C 0,0 km/h (0 Bft)
01/10/2011 19:35 24,0 C 43 % 1023,8 hPa 0,0 mm 0,0 km/h (0 Bft) E-NE 67 0 min 0 W/m 10,6 C 24,0 C 0,0 km/h (0 Bft)
01/10/2011 19:40 23,6 C 44 % 1023,8 hPa 0,0 mm 0,0 km/h (0 Bft) E-NE 67 0 min 0 W/m 10,6 C 23,6 C 0,0 km/h (0 Bft)
01/10/2011 19:45 23,2 C 44 % 1023,9 hPa 0,0 mm 0,0 km/h (0 Bft) E-NE 67 0 min 0 W/m 10,3 C 23,2 C 0,0 km/h (0 Bft)
01/10/2011 19:50 22,9 C 45 % 1023,8 hPa 0,0 mm 0,0 km/h (0 Bft) E-NE 67 0 min 0 W/m 10,3 C 22,9 C 0,0 km/h (0 Bft)
01/10/2011 19:55 22,6 C 45 % 1024,0 hPa 0,0 mm 0,0 km/h (0 Bft) E-NE 67 0 min 0 W/m 10,1 C 22,6 C 0,0 km/h (0 Bft)
01/10/2011 20:00 22,2 C 46 % 1024,0 hPa 0,0 mm 0,0 km/h (0 Bft) SE 135 0 min 0 W/m 10,0 C 22,2 C 0,0 km/h (0 Bft)
01/10/2011 20:05 21,9 C 46 % 1023,9 hPa 0,0 mm 0,0 km/h (0 Bft) SE 135 0 min 0 W/m 9,7 C 21,9 C 0,0 km/h (0 Bft)
01/10/2011 20:10 21,7 C 47 % 1024,0 hPa 0,0 mm 0,4 km/h (0 Bft) E-SE 112 0 min 0 W/m 9,9 C 21,7 C 3,6 km/h (1 Bft)
01/10/2011 20:15 21,6 C 47 % 1023,9 hPa 0,0 mm 0,0 km/h (0 Bft) E 90 0 min 0 W/m 9,8 C 21,6 C 0,0 km/h (0 Bft)
01/10/2011 20:20 21,4 C 48 % 1024,0 hPa 0,0 mm 0,0 km/h (0 Bft) E-NE 67 0 min 0 W/m 9,9 C 21,4 C 0,0 km/h (0 Bft)
01/10/2011 20:25 21,3 C 48 % 1024,0 hPa 0,0 mm 0,0 km/h (0 Bft) E 90 0 min 0 W/m 9,8 C 21,3 C 0,0 km/h (0 Bft)
01/10/2011 20:30 21,1 C 49 % 1024,1 hPa 0,0 mm 0,0 km/h (0 Bft) E 90 0 min 0 W/m 10,0 C 21,1 C 0,0 km/h (0 Bft)
01/10/2011 20:35 20,9 C 48 % 1024,1 hPa 0,0 mm 0,0 km/h (0 Bft) E 90 0 min 0 W/m 9,5 C 20,9 C 0,0 km/h (0 Bft)
01/10/2011 20:40 20,7 C 49 % 1024,1 hPa 0,0 mm 0,0 km/h (0 Bft) E-SE 112 0 min 0 W/m 9,6 C 20,7 C 0,0 km/h (0 Bft)
01/10/2011 20:45 20,6 C 49 % 1024,2 hPa 0,0 mm 0,0 km/h (0 Bft) E-SE 112 0 min 0 W/m 9,5 C 20,6 C 0,0 km/h (0 Bft)
01/10/2011 20:50 20,6 C 50 % 1024,2 hPa 0,0 mm 0,0 km/h (0 Bft) E 90 0 min 0 W/m 9,8 C 20,6 C 0,0 km/h (0 Bft)
01/10/2011 20:55 20,6 C 50 % 1024,3 hPa 0,0 mm 0,0 km/h (0 Bft) E 90 0 min 0 W/m 9,8 C 20,6 C 0,0 km/h (0 Bft)
_ Min-Heure 08:50 17:20 05:35 - 20:55 - - - - 08:30 08:50 20:55
Minimum _ 13,8 C 33 % 1023,0 hPa - 0,0 km/h (0 Bft) - - - - 8,1 C 13,8 C 0,0 km/h (0 Bft)
_ Max-Heure 14:45 03:02 12:15 20:55 15:40 - - 09:05 20:55 12:05 14:45 15:40
Maximum _ 30,2 C 75 % 1025,3 hPa 0,0 mm 7,9 km/h
S-SO (2 Bft)
- - 2 min 0 W/m 16,2 C 30,2 C 11,5 km/h
S-SO (2 Bft)
Moyenne _ 20,8 C 55 % 1023,8 hPa #0,0 mm 1,4 km/h (1 Bft) E-SE - #26 min. 0 W/m 10,9 C 20,8 C 2,8 km/h (1 Bft)
Saint Bonnet de Bellac- Haute Vienne - France